Terminal Aerodrome Forecast
Issued by NWS Austin/San Antonio, TX

Home | Current Version | Previous Version | Text Only | Print | Product List | Glossary On
Versions: 1 2 3 4 5 6 7 8 9 10 11 12 13 14 15 16 17 18 19
000
FTUS44 KEWX 291130
TAFAUS
TAF
KAUS 291130Z 2912/3018 16005KT P6SM BKN015
     FM291500 17010KT P6SM SCT040
     FM300900 21004KT P6SM FEW015 SCT080=

USA.gov is the U.S. government's official web portal to all federal, state and local government web resources and services.